Flight Track Log - Related Links

Times and Time Zones

All times are in EDT time to prevent confusion due to time zone crossing. See the UAL5863 flight status page for this flight to view local times or setup timezone preferences in your user account.

Time Position Orientation Groundspeed Altitude Reporting Facility
EDT Latitude Longitude Course Direction KTS MPH feet Rate Location/Type
09:03AM 42.0000 -87.8667 346° North 179 206 2,800  Level Chicago TRACON
09:03AM 42.0667 -87.8833 349° North 238 274 4,400 1,830 Climbing Chicago TRACON
09:05AM 42.1597 -87.9022 351° North 251 289 7,100 2,054 Climbing Chicago Center
09:06AM 42.2258 -87.8583 26° Northeast 266 306 9,500 2,323 Climbing Chicago Center
09:07AM 42.3003 -87.8333 14° North 282 325 11,900 1,707 Climbing Chicago Center
09:08AM 42.2184 -87.9784 346° North  Level FlightAware Approximate
09:08AM 42.3856 -87.8306 North 296 341 13,000  Level Chicago Center
09:09AM 42.4536 -87.9061 321° Northwest 324 373 14,000 484 Climbing Chicago Center
09:10AM 42.5078 -88.0167 304° West 345 397 14,000  Level Chicago Center
09:11AM 42.5619 -88.1300 303° West 354 407 14,000  Level Chicago Center
09:12AM 42.6283 -88.2650 304° West 354 407 14,000  Level Chicago Center
09:13AM 42.6831 -88.3775 304° West 355 409 14,000  Level Chicago Center
09:14AM 42.7369 -88.4903 303° West 355 409 14,000  Level Chicago Center
09:15AM 42.7897 -88.6017 303° West 354 407 14,000 -194 Level Chicago Center
09:16AM 42.8442 -88.7136 304° West 354 407 13,600 -726 Descending Chicago Center
09:17AM 42.8986 -88.8261 303° West 353 406 12,500 -1,016 Descending Chicago Center
09:18AM 42.9386 -88.9389 296° West 328 377 11,500 -1,500 Descending Chicago Center
09:19AM 42.9703 -89.0586 290° West 282 325 9,400 -1,984 Descending Chicago Center
09:20AM 42.9947 -89.1561 289° West 275 316 7,400 -1,935 Descending Chicago Center
09:21AM 43.0194 -89.2481 290° West 267 307 5,400 -1,887 Descending Chicago Center
09:22AM 43.0389 -89.3247 289° West 242 278 3,500 -1,645 Descending Chicago Center
09:23AM 43.0769 -89.3464 337° Northwest 185 213 2,000 -1,065 Descending Chicago Center
09:25AM 43.1181 -89.3439 North 162 186 1,300 -677 Descending Chicago Center
09:27AM 43.1333 -89.3333 309° West  Level FlightAware Approximate

Login

Don't have an account? Register now (free) for customized features, flight alerts, and more!